This is the latest recevied weather packets stored in our database for station/object WA1TYB-13. If no packets are shown the sender has not sent any weather packets the latest 10 day(s).
| Time | Temp. | Humidity | Pressure | Rain* | Wind** | Luminosity | Snow |
|---|---|---|---|---|---|---|---|
| 1778069283 | -3.89° C | 79% | 1020.8 hPa | 0 mm | - | 2 W/m² | - |
| 1778068980 | -3.89° C | 80% | 1020.8 hPa | 0 mm | - | 0 W/m² | - |
| 1778068678 | -4.44° C | 80% | 1020.8 hPa | 0 mm | - | 0 W/m² | - |
| 1778068376 | -4.44° C | 79% | 1020.9 hPa | 0 mm | - | 0 W/m² | - |
| 1778068073 | -4.44° C | 79% | 1020.9 hPa | 0 mm | - | 0 W/m² | - |
| 1778067771 | -4.44° C | 79% | 1020.7 hPa | 0 mm | - | 0 W/m² | - |
| 1778067469 | -4.44° C | 79% | 1020.7 hPa | 0 mm | - | 0 W/m² | - |
| 1778067167 | -3.33° C | 78% | 1020.9 hPa | 0 mm | - | 0 W/m² | - |
| 1778066862 | -3.33° C | 78% | 1021.1 hPa | 0 mm | - | 0 W/m² | - |
| 1778066560 | -3.33° C | 80% | 1020.9 hPa | 0 mm | - | 0 W/m² | - |
| 1778066257 | -4.44° C | 81% | 1020.9 hPa | 0 mm | - | 0 W/m² | - |
| 1778065956 | -4.44° C | 80% | 1020.6 hPa | 0 mm | - | 0 W/m² | - |
| 1778065652 | -4.44° C | 80% | 1021.1 hPa | 0 mm | - | 0 W/m² | - |
| 1778065350 | -3.89° C | 80% | 1020.9 hPa | 0 mm | - | 0 W/m² | - |
| 1778065046 | -3.89° C | 79% | 1020.9 hPa | 0 mm | - | 0 W/m² | - |
| 1778064743 | -3.33° C | 78% | 1021.1 hPa | 0 mm | - | 0 W/m² | - |
| 1778064441 | -3.33° C | 77% | 1020.9 hPa | 0 mm | - | 0 W/m² | - |
| 1778064139 | -2.78° C | 77% | 1021.1 hPa | 0 mm | - | 0 W/m² | - |
| 1778063836 | -2.78° C | 76% | 1021.2 hPa | 0 mm | - | 0 W/m² | - |
| 1778063532 | -2.22° C | 76% | 1021.2 hPa | 0 mm | - | 0 W/m² | - |
| 1778063230 | -2.22° C | 76% | 1021.3 hPa | 0 mm | - | 0 W/m² | - |
| 1778062928 | -2.22° C | 76% | 1021.1 hPa | 0 mm | - | 0 W/m² | - |
| 1778062625 | -2.78° C | 76% | 1021.1 hPa | 0 mm | - | 0 W/m² | - |
| 1778062321 | -2.22° C | 75% | 1021.2 hPa | 0 mm | - | 0 W/m² | - |
| 1778062019 | -2.22° C | 75% | 1021.2 hPa | 0 mm | - | 0 W/m² | - |
* Rain latest hour (hover to see other rain measurements)
** Current wind speed in m/s (hover to see current wind gust speed)